Tiempo cada hora Bolshie Ryabinki

Hoy, 31 Julio, Sábado

Tiempo Temperatura Precipitaciones Viento Presión Humedad
00:00 +18°C° 0 mm 3 mps 737 mmHg 82%
01:00 +18°C° 0 mm 3 mps 738 mmHg 83%
02:00 +17°C° 0 mm 3 mps 738 mmHg 84%
03:00 +17°C° 0 mm 3 mps 738 mmHg 84%
04:00 +17°C° 0 mm 2 mps 738 mmHg 84%
05:00 +17°C° 0 mm 2 mps 738 mmHg 83%
06:00 +19°C° 0 mm 3 mps 738 mmHg 78%
07:00 +20°C° 0 mm 3 mps 738 mmHg 72%
08:00 +21°C° 0 mm 3 mps 738 mmHg 67%
09:00 +23°C° 0 mm 4 mps 738 mmHg 62%
10:00 +25°C° 0 mm 4 mps 738 mmHg 58%
11:00 +27°C° 0 mm 5 mps 739 mmHg 54%
12:00 +27°C° 0 mm 5 mps 738 mmHg 52%
13:00 +28°C° 0 mm 5 mps 738 mmHg 51%
14:00 +28°C° 0 mm 5 mps 738 mmHg 50%
15:00 +28°C° 0 mm 5 mps 738 mmHg 51%
16:00 +28°C° 0 mm 4 mps 739 mmHg 52%
17:00 +27°C° 0 mm 4 mps 739 mmHg 53%
18:00 +26°C° 0 mm 3 mps 739 mmHg 58%
19:00 +24°C° 0 mm 2 mps 739 mmHg 63%
20:00 +21°C° 0 mm 2 mps 739 mmHg 68%
21:00 +20°C° 0 mm 2 mps 739 mmHg 69%
22:00 +21°C° 0 mm 1 mps 740 mmHg 69%
23:00 +20°C° 0 mm 1 mps 740 mmHg 70%

Mañana, 1 Agosto, Domingo

Tiempo Temperatura Precipitaciones Viento Presión Humedad
00:00 +19°C° 0 mm 2 mps 740 mmHg 71%
01:00 +19°C° 0 mm 2 mps 740 mmHg 72%
02:00 +18°C° 0 mm 2 mps 740 mmHg 73%
03:00 +19°C° 0 mm 2 mps 740 mmHg 73%
04:00 +19°C° 0 mm 2 mps 740 mmHg 73%
05:00 +19°C° 0 mm 3 mps 740 mmHg 73%
06:00 +21°C° 0 mm 3 mps 740 mmHg 69%
07:00 +23°C° 0 mm 4 mps 740 mmHg 64%
08:00 +26°C° 0 mm 4 mps 740 mmHg 60%
09:00 +27°C° 0 mm 4 mps 741 mmHg 56%
10:00 +29°C° 0 mm 5 mps 741 mmHg 51%
11:00 +30°C° 0 mm 5 mps 741 mmHg 47%
12:00 +32°C° 0 mm 5 mps 740 mmHg 45%
13:00 +32°C° 0 mm 5 mps 740 mmHg 44%
14:00 +33°C° 0 mm 5 mps 740 mmHg 42%
15:00 +32°C° 0 mm 4 mps 740 mmHg 45%
16:00 +31°C° 0 mm 3 mps 739 mmHg 48%
17:00 +30°C° 0 mm 3 mps 739 mmHg 51%
18:00 +28°C° 0 mm 2 mps 739 mmHg 55%
19:00 +27°C° 0 mm 2 mps 739 mmHg 59%
20:00 +25°C° 0 mm 2 mps 739 mmHg 62%
21:00 +24°C° 0 mm 2 mps 739 mmHg 65%
22:00 +23°C° 0 mm 2 mps 739 mmHg 68%
23:00 +23°C° 0 mm 2 mps 739 mmHg 70%

Pasado mañana, 2 Agosto, Lunes

Tiempo Temperatura Precipitaciones Viento Presión Humedad
00:00 +21°C° 0 mm 2 mps 739 mmHg 72%
01:00 +21°C° 0 mm 2 mps 739 mmHg 73%
02:00 +21°C° 0 mm 2 mps 739 mmHg 74%
03:00 +21°C° 0 mm 2 mps 739 mmHg 74%
04:00 +21°C° 0 mm 2 mps 738 mmHg 73%
05:00 +21°C° 0 mm 2 mps 738 mmHg 72%
06:00 +23°C° 0 mm 2 mps 738 mmHg 71%
07:00 +24°C° 0 mm 2 mps 738 mmHg 70%
08:00 +25°C° 0 mm 2 mps 738 mmHg 69%
09:00 +27°C° 0 mm 4 mps 738 mmHg 61%
10:00 +29°C° 0 mm 5 mps 738 mmHg 54%
11:00 +32°C° 0 mm 6 mps 738 mmHg 47%
12:00 +30°C° 0 mm 6 mps 737 mmHg 50%
13:00 +30°C° 0 mm 5 mps 737 mmHg 53%
14:00 +30°C° 0 mm 5 mps 737 mmHg 56%
15:00 +29°C° 0 mm 5 mps 736 mmHg 58%
16:00 +28°C° 0 mm 4 mps 736 mmHg 59%
17:00 +27°C° 0 mm 4 mps 736 mmHg 61%
18:00 +25°C° 0.3 mm 4 mps 736 mmHg 69%
19:00 +22°C° 0.3 mm 3 mps 736 mmHg 76%
20:00 +20°C° 0.3 mm 3 mps 735 mmHg 84%
21:00 +20°C° 1.7 mm 3 mps 735 mmHg 88%
22:00 +20°C° 1.7 mm 3 mps 736 mmHg 92%
23:00 +20°C° 1.7 mm 3 mps 736 mmHg 96%

3 Agosto, Martes

Tiempo Temperatura Precipitaciones Viento Presión Humedad
00:00 +19°C° 0.2 mm 3 mps 735 mmHg 96%
01:00 +19°C° 0.2 mm 4 mps 735 mmHg 96%
02:00 +19°C° 0.2 mm 5 mps 735 mmHg 96%
03:00 +17°C° 0 mm 5 mps 735 mmHg 94%
04:00 +17°C° 0 mm 5 mps 736 mmHg 92%
05:00 +17°C° 0 mm 6 mps 736 mmHg 90%
06:00 +17°C° 0.1 mm 6 mps 736 mmHg 90%
07:00 +17°C° 0.1 mm 5 mps 737 mmHg 90%
08:00 +17°C° 0.1 mm 5 mps 737 mmHg 89%
09:00 +17°C° 0.1 mm 5 mps 738 mmHg 86%
10:00 +17°C° 0.1 mm 6 mps 739 mmHg 82%
11:00 +19°C° 0.1 mm 6 mps 739 mmHg 78%
12:00 +20°C° 0.1 mm 6 mps 739 mmHg 73%
13:00 +21°C° 0.1 mm 5 mps 740 mmHg 68%
14:00 +22°C° 0.1 mm 5 mps 740 mmHg 63%
15:00 +22°C° 0.3 mm 5 mps 740 mmHg 64%
16:00 +22°C° 0.3 mm 5 mps 740 mmHg 65%
17:00 +21°C° 0.3 mm 4 mps 740 mmHg 66%
18:00 +20°C° 0.1 mm 4 mps 741 mmHg 70%
19:00 +18°C° 0.1 mm 3 mps 741 mmHg 75%
20:00 +17°C° 0.1 mm 3 mps 741 mmHg 79%
21:00 +16°C° 0 mm 3 mps 741 mmHg 81%
22:00 +16°C° 0 mm 3 mps 742 mmHg 82%
23:00 +14°C° 0 mm 3 mps 742 mmHg 84%

4 Agosto, Miércoles

Tiempo Temperatura Precipitaciones Viento Presión Humedad
00:00 +14°C° 0 mm 3 mps 742 mmHg 86%
01:00 +15°C° 0 mm 2 mps 742 mmHg 87%
02:00 +14°C° 0 mm 2 mps 743 mmHg 89%
03:00 +14°C° 0 mm 2 mps 743 mmHg 90%
04:00 +14°C° 0 mm 2 mps 743 mmHg 90%
05:00 +14°C° 0 mm 2 mps 743 mmHg 90%
06:00 +16°C° 0 mm 2 mps 743 mmHg 83%
07:00 +18°C° 0 mm 3 mps 744 mmHg 75%
08:00 +20°C° 0 mm 3 mps 744 mmHg 68%
09:00 +21°C° 0 mm 3 mps 744 mmHg 62%
10:00 +22°C° 0 mm 3 mps 744 mmHg 57%
11:00 +24°C° 0 mm 3 mps 744 mmHg 52%
12:00 +25°C° 0 mm 3 mps 744 mmHg 51%
13:00 +25°C° 0 mm 3 mps 744 mmHg 50%
14:00 +25°C° 0 mm 3 mps 744 mmHg 49%
15:00 +25°C° 0 mm 2 mps 744 mmHg 53%
16:00 +24°C° 0 mm 2 mps 744 mmHg 57%
17:00 +23°C° 0 mm 1 mps 744 mmHg 62%
18:00 +23°C° 0 mm 1 mps 744 mmHg 63%
19:00 +22°C° 0 mm 1 mps 744 mmHg 64%
20:00 +21°C° 0 mm 1 mps 744 mmHg 65%
21:00 +20°C° 0 mm 1 mps 744 mmHg 65%
22:00 +20°C° 0 mm 1 mps 744 mmHg 65%
23:00 +20°C° 0 mm 1 mps 744 mmHg 65%

5 Agosto, Jueves

Tiempo Temperatura Precipitaciones Viento Presión Humedad
00:00 +19°C° 0 mm 1 mps 744 mmHg 67%
01:00 +18°C° 0 mm 1 mps 744 mmHg 68%
02:00 +18°C° 0 mm 1 mps 744 mmHg 70%
03:00 +18°C° 0 mm 1 mps 744 mmHg 71%
04:00 +16°C° 0 mm 1 mps 744 mmHg 72%
05:00 +16°C° 0 mm 2 mps 744 mmHg 74%
06:00 +18°C° 0 mm 2 mps 744 mmHg 68%
07:00 +20°C° 0 mm 2 mps 744 mmHg 63%
08:00 +23°C° 0 mm 2 mps 744 mmHg 58%
09:00 +22°C° 0 mm 3 mps 744 mmHg 56%
10:00 +24°C° 0 mm 3 mps 744 mmHg 54%
11:00 +24°C° 0 mm 3 mps 743 mmHg 51%
12:00 +22°C° 0.1 mm 3 mps 743 mmHg 61%
13:00 +20°C° 0.1 mm 3 mps 743 mmHg 70%
14:00 +18°C° 0.1 mm 3 mps 743 mmHg 80%
15:00 +18°C° 0.4 mm 3 mps 743 mmHg 82%
16:00 +18°C° 0.4 mm 3 mps 743 mmHg 84%
17:00 +18°C° 0.4 mm 3 mps 742 mmHg 85%
18:00 +18°C° 0.3 mm 3 mps 742 mmHg 88%
19:00 +17°C° 0.3 mm 3 mps 742 mmHg 90%
20:00 +17°C° 0.3 mm 2 mps 742 mmHg 92%
21:00 +17°C° 1 mm 3 mps 742 mmHg 93%
22:00 +17°C° 1 mm 3 mps 742 mmHg 94%
23:00 +17°C° 1 mm 3 mps 741 mmHg 95%
Mostrar más